Regional Weather Roundup
Issued by NWS

Home | Current Version | Previous Version | Text Only | Print | Product List | Glossary On
Versions: 1 2 3 4 5 6 7 8 9 10 11 12 13 14 15 16 17 18 19 20 21 22 23 24 25 26 27 28 29 30 31 32 33 34 35 36 37 38 39 40 41 42 43 44 45 46 47 48 49 50
000
ASPQ40 PGUM 281012
RWRPQ
WEATHER ROUNDUP FOR THE MARIANAS AND MICRONESIA
NATIONAL WEATHER SERVICE TIYAN GU
800 PM CHST SUN DEC 28 2014

GUZ001>004-281100-
MARIANA ISLANDS-

CITY           SKY/WX    TMP DP  RH WIND       PRES   REMARKS
GUAM AIRPORT   PTCLDY    81  75  83 E8        29.86R
ANDERSEN AFB   MOCLDY    79  73  83 E14       29.87R
ROTA AIRPORT   PTCLDY    79  73  83 E13       29.87R
TINIAN AP      PTCLDY    81  73  78 E7        29.86R
SAIPAN AP      PTCLDY    81  73  78 E10G23    29.87R

$$

PMZ161-281100-
REPUBLIC OF PALAU-

CITY           SKY/WX    TMP DP  RH WIND       PRES   REMARKS
KOROR AP       CLOUDY    81  77  89 E6        29.77R
KOROR WSO      MOCLDY    82  77  83 SE7       29.76R HX  91

$$

PMZ171>174-281100-
FEDERATED STATES OF MICRONESIA-

CITY           SKY/WX    TMP DP  RH WIND       PRES   REMARKS
YAP AIRPORT    PTCLDY    81  75  83 VRB6      29.80R
CHUUK AP       CLOUDY    82  73  74 VRB6      29.78R
POHNPEI AP     CLOUDY    82  77  83 E12       29.76R HX  91
POHNPEI WSO    CLOUDY    82  77  83 E7        29.81R HX  91
KOSRAE AP      NOT AVBL

$$

PMZ181-281100-
REPUBLIC OF THE MARSHALL ISLANDS-

CITY           SKY/WX    TMP DP  RH WIND       PRES   REMARKS
KWAJALEIN AP   MOCLDY    81  73  78 NE20G25   29.80S
MAJURO AP      NOT AVBL
MAJURO WSO     MOCLDY    82  77  83 NE13      29.77S HX  91

$$



USA.gov is the U.S. government's official web portal to all federal, state and local government web resources and services.